Home > Weather > Yavatmal > Past weeks

Flag for India Past Weather in Yavatmal, Maharashtra, India — Yesterday and Last 2 Weeks

Now
93 °F

Haze.


Feels Like: 93 °F
Forecast: 85 / 105 °F
Wind: 6 mph from Northwest

Location: Nagpur Sonegaon

Current Time: May 28, 2016 at 3:39:52 AM

Latest Report: May 28, 2016 at 3:00 AM


Visibility: 2 mi

Pressure: 29.65 "Hg

Humidity: 32%

Dew Point: 59 °F

Location of YavatmalLocation

Past Weather in Yavatmal — Graph

°F

Yavatmal Temperature Yesterday

Maximum temperature yesterday: 111 °F (at 4:30 PM)
Minimum temperature yesterday: 91 °F (at 6:00 AM)
Average temperature yesterday: 101 °F

High & Low Weather Summary for the Past Weeks

 TemperatureHumidityPressure
High115 °F (May 17, 3:30 PM)71% (May 25, 8:30 AM)29.92 "Hg (May 25, 8:30 AM)
Low84 °F (May 26, 4:00 AM)10% (May 21, 6:00 PM)29.18 "Hg (May 20, 1:30 PM)
Average100 °F28%29.63 "Hg
* Reported May 13 1:30 AM — May 28 2:00 AM, Yavatmal, Weather by CustomWeather, © 2016

Note: Actual official high and low records may vary slightly from our data, if they occured in-between our weather recording intervals... More about our weather records

Advertising

Yavatmal Weather History for the Previous 24 Hours

Scroll right to see more
 ConditionsComfort  
Time TempWeatherWind HumidityBarometerVisibility
2:00 AM
Sat, May 28
93 °FHaze.3 mph32%29.65 "Hg2 mi
1:30 AM91 °FHaze.2 mph32%29.68 "Hg2 mi
1:00 AM93 °FHaze.3 mph30%29.68 "Hg2 mi
12:30 AM95 °FHaze.5 mph28%29.68 "Hg2 mi
12:00 AM95 °FHaze.7 mph30%29.68 "Hg2 mi
11:30 PM
Fri, May 27
97 °FHaze.6 mph28%29.68 "Hg2 mi
11:00 PM99 °FHaze.7 mph27%29.68 "Hg2 mi
10:30 PM99 °FHaze.7 mph27%29.68 "Hg3 mi
10:00 PM100 °FHaze.8 mph24%29.68 "Hg3 mi
9:30 PM100 °FHaze.8 mph24%29.65 "Hg3 mi
8:30 PM102 °FHaze.8 mph23%29.65 "Hg3 mi
8:00 PM102 °FHaze.7 mph21%29.65 "Hg3 mi
7:30 PM106 °FHaze.8 mph19%29.62 "Hg3 mi
7:00 PM106 °FHaze.13 mph20%29.62 "Hg3 mi
6:30 PM108 °FHaze.13 mph18%29.62 "Hg3 mi
6:00 PM109 °FHaze.12 mph16%29.62 "Hg3 mi
5:30 PM109 °FScattered clouds.12 mph17%29.59 "Hg4 mi
5:00 PM109 °FScattered clouds.12 mph18%29.59 "Hg4 mi
4:30 PM111 °FScattered clouds.12 mph18%29.59 "Hg4 mi
3:30 PM109 °FScattered clouds.12 mph23%29.62 "Hg4 mi
3:00 PM109 °FScattered clouds.12 mph19%29.62 "Hg4 mi
2:30 PM109 °FScattered clouds.12 mph22%29.62 "Hg4 mi
2:00 PM109 °FScattered clouds.12 mph21%29.65 "Hg4 mi
1:30 PM108 °FScattered clouds.13 mph25%29.68 "Hg4 mi
1:00 PM108 °FPassing clouds.14 mph26%29.68 "Hg4 mi
12:30 PM106 °FPassing clouds.17 mph30%29.71 "Hg4 mi
12:00 PM104 °FPassing clouds.12 mph31%29.71 "Hg4 mi
11:30 AM104 °FPassing clouds.16 mph33%29.74 "Hg4 mi
10:30 AM102 °FClear.17 mph33%29.74 "Hg4 mi
10:00 AM100 °FClear.17 mph35%29.74 "Hg4 mi
9:30 AM99 °FClear.13 mph39%29.74 "Hg4 mi
9:00 AM97 °FClear.16 mph42%29.74 "Hg4 mi
8:30 AM97 °FClear.16 mph42%29.74 "Hg4 mi
8:00 AM95 °FClear.12 mph44%29.74 "Hg4 mi
7:30 AM93 °FClear.16 mph44%29.74 "Hg4 mi
6:30 AM93 °FHaze.9 mph39%29.71 "Hg3 mi
6:00 AM91 °FHaze.12 mph41%29.71 "Hg2 mi
5:30 AM93 °FHaze.8 mph39%29.68 "Hg2 mi
4:30 AM93 °FHaze.9 mph39%29.65 "Hg2 mi
3:30 AM95 °FHaze.12 mph36%29.65 "Hg2 mi
3:00 AM95 °FHaze.9 mph36%29.65 "Hg2 mi
Weather by CustomWeather, © 2016

See weather overviewHow to use our weather pages